When you browse on this site, cookies collect data to enhance your experience and personalize the content and advertising you see.
Visit our Privacy Policy to learn more. By continuing to use the site, you agree to this use of cookies and data.
  • In United Kingdom
  • List of Countries
  • For 7 days
  • Water Temperature
  • Satellite Maps
  • Weather Map
  • Weather Widgets
  • user-avatar
    Login

    Hourly Weather Uz

    Today, 20 June, Thursday

    Time Temperature Precipitation Wind Pressure Humidity
    00:00 +24°C° 0 mm 2 mps 694 mmHg 32%
    01:00 +24°C° 0 mm 2 mps 693 mmHg 33%
    02:00 +24°C° 0 mm 2 mps 693 mmHg 33%
    03:00 +23°C° 0 mm 1 mps 693 mmHg 34%
    04:00 +23°C° 0 mm 1 mps 693 mmHg 36%
    05:00 +25°C° 0 mm 1 mps 694 mmHg 33%
    06:00 +27°C° 0 mm 1 mps 695 mmHg 30%
    07:00 +29°C° 0 mm 2 mps 695 mmHg 27%
    08:00 +30°C° 0 mm 2 mps 695 mmHg 25%
    09:00 +31°C° 0 mm 3 mps 695 mmHg 23%
    10:00 +34°C° 0 mm 3 mps 696 mmHg 21%
    11:00 +34°C° 0 mm 3 mps 695 mmHg 20%
    12:00 +35°C° 0 mm 3 mps 695 mmHg 19%
    13:00 +36°C° 0 mm 3 mps 695 mmHg 19%
    14:00 +36°C° 0 mm 3 mps 695 mmHg 19%
    15:00 +36°C° 0 mm 3 mps 695 mmHg 19%
    16:00 +36°C° 0 mm 3 mps 695 mmHg 19%
    17:00 +34°C° 0 mm 3 mps 694 mmHg 22%
    18:00 +31°C° 0 mm 3 mps 694 mmHg 24%
    19:00 +29°C° 0 mm 3 mps 694 mmHg 26%
    20:00 +28°C° 0 mm 3 mps 694 mmHg 27%
    21:00 +27°C° 0 mm 3 mps 694 mmHg 28%
    22:00 +27°C° 0 mm 2 mps 694 mmHg 28%
    23:00 +26°C° 0 mm 2 mps 694 mmHg 28%

    Tomorrow, 21 June, Friday

    Time Temperature Precipitation Wind Pressure Humidity
    00:00 +26°C° 0 mm 2 mps 694 mmHg 28%
    01:00 +25°C° 0 mm 2 mps 694 mmHg 28%
    02:00 +25°C° 0 mm 2 mps 694 mmHg 29%
    03:00 +25°C° 0 mm 2 mps 694 mmHg 29%
    04:00 +24°C° 0 mm 2 mps 694 mmHg 29%
    05:00 +27°C° 0 mm 2 mps 694 mmHg 27%
    06:00 +29°C° 0 mm 2 mps 695 mmHg 25%
    07:00 +31°C° 0 mm 1 mps 695 mmHg 23%
    08:00 +32°C° 0 mm 2 mps 695 mmHg 21%
    09:00 +34°C° 0 mm 2 mps 696 mmHg 20%
    10:00 +36°C° 0 mm 2 mps 696 mmHg 18%
    11:00 +36°C° 0 mm 3 mps 696 mmHg 17%
    12:00 +37°C° 0 mm 3 mps 695 mmHg 16%
    13:00 +38°C° 0 mm 3 mps 695 mmHg 15%
    14:00 +38°C° 0 mm 3 mps 695 mmHg 15%
    15:00 +38°C° 0 mm 4 mps 695 mmHg 15%
    16:00 +38°C° 0 mm 4 mps 695 mmHg 15%
    17:00 +36°C° 0 mm 3 mps 694 mmHg 17%
    18:00 +34°C° 0 mm 3 mps 694 mmHg 18%
    19:00 +31°C° 0 mm 2 mps 694 mmHg 20%
    20:00 +29°C° 0 mm 2 mps 694 mmHg 21%
    21:00 +28°C° 0 mm 2 mps 694 mmHg 21%
    22:00 +27°C° 0 mm 2 mps 695 mmHg 22%
    23:00 +27°C° 0 mm 2 mps 694 mmHg 23%

    Day after tomorrow, 22 June, Saturday

    Time Temperature Precipitation Wind Pressure Humidity
    00:00 +26°C° 0 mm 2 mps 694 mmHg 24%
    01:00 +26°C° 0 mm 2 mps 694 mmHg 25%
    02:00 +25°C° 0 mm 2 mps 694 mmHg 25%
    03:00 +25°C° 0 mm 2 mps 694 mmHg 26%
    04:00 +25°C° 0 mm 2 mps 694 mmHg 27%
    05:00 +26°C° 0 mm 2 mps 695 mmHg 25%
    06:00 +28°C° 0 mm 2 mps 695 mmHg 23%
    07:00 +30°C° 0 mm 2 mps 696 mmHg 21%
    08:00 +32°C° 0 mm 2 mps 696 mmHg 19%
    09:00 +34°C° 0 mm 3 mps 696 mmHg 18%
    10:00 +36°C° 0 mm 3 mps 697 mmHg 16%
    11:00 +36°C° 0 mm 3 mps 697 mmHg 16%
    12:00 +37°C° 0 mm 3 mps 697 mmHg 15%
    13:00 +37°C° 0 mm 4 mps 697 mmHg 15%
    14:00 +37°C° 0 mm 4 mps 696 mmHg 15%
    15:00 +37°C° 0 mm 5 mps 696 mmHg 16%
    16:00 +37°C° 0 mm 5 mps 696 mmHg 17%
    17:00 +35°C° 0 mm 5 mps 696 mmHg 20%
    18:00 +33°C° 0 mm 4 mps 695 mmHg 23%
    19:00 +30°C° 0 mm 3 mps 695 mmHg 26%
    20:00 +29°C° 0 mm 3 mps 695 mmHg 27%
    21:00 +28°C° 0 mm 3 mps 695 mmHg 28%
    22:00 +27°C° 0 mm 3 mps 696 mmHg 29%
    23:00 +27°C° 0 mm 2 mps 695 mmHg 29%

    23 June, Sunday

    Time Temperature Precipitation Wind Pressure Humidity
    00:00 +26°C° 0 mm 2 mps 695 mmHg 30%
    01:00 +26°C° 0 mm 2 mps 695 mmHg 31%
    02:00 +25°C° 0 mm 2 mps 695 mmHg 31%
    03:00 +25°C° 0 mm 2 mps 695 mmHg 30%
    04:00 +25°C° 0 mm 2 mps 695 mmHg 30%
    05:00 +27°C° 0 mm 2 mps 695 mmHg 28%
    06:00 +28°C° 0 mm 2 mps 696 mmHg 26%
    07:00 +29°C° 0 mm 2 mps 696 mmHg 25%
    08:00 +31°C° 0 mm 3 mps 697 mmHg 23%
    09:00 +33°C° 0 mm 3 mps 697 mmHg 21%
    10:00 +35°C° 0 mm 4 mps 697 mmHg 19%
    11:00 +35°C° 0 mm 4 mps 697 mmHg 19%
    12:00 +36°C° 0 mm 4 mps 697 mmHg 18%
    13:00 +37°C° 0 mm 4 mps 697 mmHg 17%
    14:00 +36°C° 0 mm 5 mps 697 mmHg 19%
    15:00 +36°C° 0 mm 5 mps 697 mmHg 20%
    16:00 +35°C° 0 mm 6 mps 696 mmHg 22%
    17:00 +34°C° 0 mm 5 mps 696 mmHg 24%
    18:00 +32°C° 0 mm 5 mps 696 mmHg 26%
    19:00 +30°C° 0 mm 5 mps 696 mmHg 29%
    20:00 +29°C° 0 mm 4 mps 696 mmHg 30%
    21:00 +28°C° 0 mm 4 mps 696 mmHg 31%
    22:00 +27°C° 0 mm 4 mps 696 mmHg 32%
    23:00 +27°C° 0 mm 4 mps 696 mmHg 31%

    24 June, Monday

    Time Temperature Precipitation Wind Pressure Humidity
    00:00 +26°C° 0 mm 4 mps 696 mmHg 30%
    01:00 +26°C° 0 mm 4 mps 696 mmHg 29%
    02:00 +26°C° 0 mm 3 mps 696 mmHg 29%
    03:00 +25°C° 0 mm 3 mps 696 mmHg 29%
    04:00 +25°C° 0 mm 3 mps 696 mmHg 29%
    05:00 +27°C° 0 mm 3 mps 696 mmHg 27%
    06:00 +29°C° 0 mm 2 mps 696 mmHg 25%
    07:00 +31°C° 0 mm 2 mps 697 mmHg 23%
    08:00 +34°C° 0 mm 2 mps 697 mmHg 20%
    09:00 +35°C° 0 mm 2 mps 697 mmHg 18%
    10:00 +36°C° 0 mm 2 mps 697 mmHg 16%
    11:00 +37°C° 0 mm 3 mps 697 mmHg 15%
    12:00 +38°C° 0 mm 3 mps 697 mmHg 14%
    13:00 +38°C° 0 mm 3 mps 696 mmHg 13%
    14:00 +38°C° 0 mm 4 mps 696 mmHg 13%
    15:00 +39°C° 0 mm 5 mps 696 mmHg 14%
    16:00 +38°C° 0 mm 6 mps 696 mmHg 14%
    17:00 +35°C° 0 mm 5 mps 695 mmHg 18%
    18:00 +33°C° 0 mm 4 mps 695 mmHg 22%
    19:00 +30°C° 0 mm 3 mps 695 mmHg 26%
    20:00 +29°C° 0 mm 3 mps 695 mmHg 27%
    21:00 +28°C° 0 mm 3 mps 695 mmHg 27%
    22:00 +28°C° 0 mm 2 mps 695 mmHg 28%
    23:00 +27°C° 0 mm 2 mps 695 mmHg 28%

    25 June, Tuesday

    Time Temperature Precipitation Wind Pressure Humidity
    00:00 +27°C° 0 mm 2 mps 695 mmHg 28%
    01:00 +27°C° 0 mm 2 mps 694 mmHg 28%
    02:00 +26°C° 0 mm 2 mps 694 mmHg 28%
    03:00 +26°C° 0 mm 2 mps 694 mmHg 29%
    04:00 +26°C° 0 mm 2 mps 694 mmHg 29%
    05:00 +28°C° 0 mm 1 mps 695 mmHg 26%
    06:00 +30°C° 0 mm 1 mps 695 mmHg 24%
    07:00 +32°C° 0 mm 1 mps 696 mmHg 21%
    08:00 +33°C° 0 mm 1 mps 696 mmHg 19%
    09:00 +36°C° 0 mm 2 mps 696 mmHg 17%
    10:00 +37°C° 0 mm 2 mps 696 mmHg 15%
    11:00 +38°C° 0 mm 3 mps 696 mmHg 14%
    12:00 +38°C° 0 mm 3 mps 696 mmHg 13%
    13:00 +40°C° 0 mm 4 mps 696 mmHg 12%
    14:00 +40°C° 0 mm 4 mps 696 mmHg 12%
    15:00 +39°C° 0 mm 3 mps 695 mmHg 12%
    16:00 +39°C° 0 mm 3 mps 695 mmHg 11%
    17:00 +36°C° 0 mm 3 mps 695 mmHg 15%
    18:00 +34°C° 0 mm 3 mps 694 mmHg 18%
    19:00 +31°C° 0 mm 3 mps 694 mmHg 21%
    20:00 +30°C° 0 mm 3 mps 694 mmHg 22%
    21:00 +29°C° 0 mm 3 mps 694 mmHg 22%
    22:00 +28°C° 0 mm 2 mps 694 mmHg 23%
    23:00 +28°C° 0 mm 2 mps 694 mmHg 23%
    Show more